Oroville, Washington, United States (98844)
Lat: 48.94N, Lon: 119.43W
Wx Zone: WAZ043
Local Info
Past Weather Observations for Today

NOTE: This archive is for the closest National Weather Service station to Oroville. Information may differ from the station used for current weather conditions.

Click here for Long-term Archive

Time Weather Temperature Dewpoint Humidity Pressure Winds Precip Visibility
15:13
Overcast
Fog And Mist
34°F / 1°C 32°F / 0°C 93% 29.95 in
(1014 mb)
Calm 0.00 in
(0.00 mm)
1 1/4SM
15:05
Overcast
Light Rain
34°F / 1°C 32°F / 0°C 93% 29.95 in
(1014 mb)
Calm 0.00 in
(0.00 mm)
1SM
14:53
Overcast
Light Rain
34°F / 1°C 32°F / 0°C 93% 29.95 in
(1014 mb)
Calm 0.01 in
(0.25 mm)
1/2SM
14:48
Overcast
Light Rain
34°F / 1°C 32°F / 0°C 93% 29.95 in
(1014 mb)
Calm 0.01 in
(0.25 mm)
1/4SM
14:04
Obscured
Light Snow
34°F / 1°C 32°F / 0°C 93% 29.95 in
(1014 mb)
Calm 0.00 in
(0.00 mm)
1/4SM
13:53
Overcast
Unknown Precip
34°F / 1°C 32°F / 0°C 93% 29.95 in
(1014 mb)
Calm 0.01 in
(0.25 mm)
3/4SM
13:49
Overcast
Unknown Precip
34°F / 1°C 32°F / 0°C 93% 29.95 in
(1014 mb)
Calm 0.01 in
(0.25 mm)
1SM
13:39
Overcast
Light Snow
34°F / 1°C 32°F / 0°C 93% 29.95 in
(1014 mb)
Calm 0.01 in
(0.25 mm)
1 1/4SM
13:19
Overcast
Light Snow
34°F / 1°C 32°F / 0°C 93% 29.95 in
(1014 mb)
Calm 0.01 in
(0.25 mm)
1SM
12:53
Overcast
Light Snow
34°F / 1°C 32°F / 0°C 93% 29.95 in
(1014 mb)
Calm 0.01 in
(0.25 mm)
1 1/2SM
12:29
Overcast
Light Snow
34°F / 1°C 32°F / 0°C 93% 29.95 in
(1014 mb)
Calm 0.01 in
(0.25 mm)
1 1/2SM
12:19
Overcast
Unknown Precip
34°F / 1°C 32°F / 0°C 93% 29.95 in
(1014 mb)
Calm 0.01 in
(0.25 mm)
1 1/4SM
11:53
Overcast
Light Snow
34°F / 1°C 30°F / -1°C 87% 29.95 in
(1014 mb)
Calm 0.03 in
(0.76 mm)
1/2SM
11:13
Overcast
Light Snow
34°F / 1°C 30°F / -1°C 87% 29.98 in
(1015 mb)
Calm 0.01 in
(0.25 mm)
3/4SM
11:03
Overcast
Light Snow
34°F / 1°C 30°F / -1°C 87% 29.98 in
(1015 mb)
Calm 0.01 in
(0.25 mm)
1/2SM
10:53
Overcast
Light Snow
34°F / 1°C 32°F / 0°C 93% 29.98 in
(1015 mb)
Calm 0.02 in
(0.51 mm)
1/2SM
10:34
Obscured
Light Snow
34°F / 1°C 30°F / -1°C 87% 29.98 in
(1015 mb)
Calm 0.01 in
(0.25 mm)
1/2SM
10:12
Overcast
Light Snow
34°F / 1°C 30°F / -1°C 87% 29.98 in
(1015 mb)
Calm 0.00 in
(0.00 mm)
1/2SM
09:53
Overcast
Light Snow
34°F / 1°C 32°F / 0°C 93% 29.98 in
(1015 mb)
Calm 0.03 in
(0.76 mm)
1/2SM
09:42
Overcast
Light Snow
32°F / 0°C 32°F / 0°C 100% 29.98 in
(1015 mb)
Calm 0.02 in
(0.51 mm)
1/2SM
09:35
Overcast
Light Snow
32°F / 0°C 32°F / 0°C 100% 29.98 in
(1015 mb)
Calm 0.02 in
(0.51 mm)
1/4SM
09:28
Overcast
Light Snow
32°F / 0°C 32°F / 0°C 100% 29.98 in
(1015 mb)
Calm 0.02 in
(0.51 mm)
1/2SM
09:06
Overcast
Light Snow
34°F / 1°C 32°F / 0°C 93% 29.98 in
(1015 mb)
Calm 0.01 in
(0.25 mm)
3/4SM
09:00
Overcast
Light Snow
34°F / 1°C 32°F / 0°C 93% 29.98 in
(1015 mb)
Calm 0.01 in
(0.25 mm)
1SM
08:53
Overcast
Light Snow
34°F / 1°C 32°F / 0°C 93% 29.98 in
(1015 mb)
Calm 0.00 in
(0.00 mm)
1 1/4SM
08:48
Overcast
Light Snow
34°F / 1°C 32°F / 0°C 93% 29.98 in
(1015 mb)
Calm 0.00 in
(0.00 mm)
1 1/4SM
08:38
Overcast
Unknown Precip
34°F / 1°C 32°F / 0°C 93% 29.98 in
(1015 mb)
Calm 0.00 in
(0.00 mm)
1 3/4SM
07:53
Overcast
Unknown Precip
32°F / 0°C 30°F / -1°C 93% 29.95 in
(1014 mb)
SSW 4.6 mph
(SSW 7 kph)
0.00 in
(0.00 mm)
2 1/2SM
07:46
Overcast
Fog And Mist
32°F / 0°C 30°F / -1°C 93% 29.95 in
(1014 mb)
SSW 4.6 mph
(SSW 7 kph)
0.00 in
(0.00 mm)
3SM
07:39
Overcast
Fog And Mist
32°F / 0°C 30°F / -1°C 93% 29.95 in
(1014 mb)
SSW 3.5 mph
(SSW 6 kph)
0.00 in
(0.00 mm)
2 1/2SM
07:14
Overcast
Fog And Mist
32°F / 0°C 30°F / -1°C 93% 29.95 in
(1014 mb)
Calm - 3SM
06:53
Overcast
Fog And Mist
32°F / 0°C 30°F / -1°C 93% 29.95 in
(1014 mb)
SE 3.5 mph
(SE 6 kph)
- 2SM
06:51
Overcast
Fog And Mist
32°F / 0°C 30°F / -1°C 93% 29.95 in
(1014 mb)
SSE 3.5 mph
(SSE 6 kph)
- 1 3/4SM
06:37
Overcast
Fog And Mist
32°F / 0°C 30°F / -1°C 93% 29.95 in
(1014 mb)
Calm - 2 1/2SM
05:53
Overcast
Fog And Mist
32°F / 0°C 30°F / -1°C 93% 29.95 in
(1014 mb)
WNW 3.5 mph
(WNW 6 kph)
- 3SM
05:41
Overcast
Fog And Mist
32°F / 0°C 30°F / -1°C 93% 29.95 in
(1014 mb)
W 4.6 mph
(W 7 kph)
- 4SM
05:34
Overcast
Fog And Mist
32°F / 0°C 30°F / -1°C 93% 29.95 in
(1014 mb)
WNW 4.6 mph
(WNW 7 kph)
- 2 1/2SM
04:53
Overcast
Fog And Mist
32°F / 0°C 30°F / -1°C 93% 29.98 in
(1015 mb)
Calm - 1 1/4SM
04:24
Overcast
Fog And Mist
32°F / 0°C 30°F / -1°C 93% 29.98 in
(1015 mb)
SW 3.5 mph
(SW 6 kph)
- 1 3/4SM
04:10
Overcast
Fog And Mist
32°F / 0°C 30°F / -1°C 93% 29.98 in
(1015 mb)
Calm - 2 1/2SM
03:53
Overcast
Fog And Mist
32°F / 0°C 30°F / -1°C 93% 29.98 in
(1015 mb)
Calm - 3SM
02:53
Overcast
Fog And Mist
32°F / 0°C 30°F / -1°C 93% 29.98 in
(1015 mb)
NW 3.5 mph
(NW 6 kph)
- 4SM
02:39
Overcast
Fog And Mist
32°F / 0°C 30°F / -1°C 93% 29.98 in
(1015 mb)
NW 3.5 mph
(NW 6 kph)
- 3SM
02:06
Overcast
Fog And Mist
32°F / 0°C 30°F / -1°C 93% 29.98 in
(1015 mb)
Calm - 2SM
01:53
Overcast
Fog And Mist
32°F / 0°C 30°F / -1°C 93% 29.98 in
(1015 mb)
Calm - 1 1/2SM
01:35
Overcast
Fog And Mist
32°F / 0°C 30°F / -1°C 93% 29.98 in
(1015 mb)
Calm - 1SM
01:08
Overcast
Fog And Mist
32°F / 0°C 30°F / -1°C 93% 29.98 in
(1015 mb)
Calm - 2 1/2SM
00:53
Overcast
Fog And Mist
32°F / 0°C 30°F / -1°C 93% 29.98 in
(1015 mb)
Calm - 3SM
00:31
Overcast
Fog And Mist
32°F / 0°C 30°F / -1°C 93% 29.98 in
(1015 mb)
Calm - 3SM
Time Weather Temperature Dewpoint Humidity Pressure Winds Precip Visibility


Weather for websites

WeatherForYou.com, LLC is not responsible for any damages or problems caused by this service. Current weather conditions are obtained from the closest station including government and personal stations which may have varying degrees of accuracy. Weather forecasts are derived from the NOAA NDFD. Like all things, this site belongs to Jesus Christ... He just trusts me to maintain it. If you have any questions or comments email webmaster@weatherforyou.com

Copyright © 2014, WeatherForYou.com LLC. All rights reserved.